Weather in Ain Sukhna

Egypt     29°37′43″N   32°19′11″E
temp.,
°C
wind,
m/s
gust,
m/s
humid.,
%
clouds,
%
prec.,
mm/h
press.,
hPa
HPBL,
m
16 may, sun
sun1623:00+22ne11400 0.0 101211
02:00+21nw22370 0.0 101011
05:00+20se11370 0.0 100911
08:00+26wsw00210 0.0 1010223
11:00+32ese22120 0.0 1009769
14:00+35sse33117 0.0 10071970
17:00+35e33110 0.0 10051425
20:00+28nne33233 0.0 100625
17 may, mon
mon1723:00+23nw58470 0.0 1009188
02:00+21nw596899 0.0 1009316
05:00+19nw477358 0.0 1010244
08:00+23nnw45545 0.0 1012601
11:00+28n23334 0.0 10111072
14:00+32nnw44230 0.0 10091619
17:00+32n66231 0.0 10091464
20:00+24n68470 0.0 1012304
18 may, tue
tue1823:00+21nnw35640 0.0 1014303
02:00+19wnw23710 0.0 101367
05:00+18nw22770 0.0 101334
08:00+22n12540 0.0 1014526
11:00+28nne34280 0.0 10131076
14:00+32nne55210 0.0 10111462
17:00+31nne87240 0.0 10111172
20:00+24n47440 0.0 1013163
19 may, wed
wed1923:00+21nw22570 0.0 101420
02:00+19nw33690 0.0 101343
05:00+18nw22740 0.0 101226
08:00+24nw23430 0.0 1012420
11:00+30nne44230 0.0 10121021
14:00+34nne55180 0.0 10101448
17:00+32nne88230 0.0 10101084
20:00+25n47460 0.0 1012168
20 may, thu
thu2023:00+22wnw33610 0.0 101231
02:00+20wnw33680 0.0 101137
05:00+19wnw33750 0.0 101243
08:00+25nw34440 0.0 1012422
11:00+31nne45220 0.0 10111155
14:00+35nne66170 0.0 10081821
17:00+33nne98180 0.0 1008985
20:00+25n58400 0.0 1011201